Location: Shenandoah County Park
(38.9356°N, 78.4524°W)
Time: 05:51:32
(UTC-04:00)

Explorer 11/Cluster Stage 4 - Pass Details

Date: 25 February 2024
Orbit: 465 x 1220 km, 28.8° (Epoch: 12 April)

Event Time Altitude Azimuth Distance (km) Brightness Sun altitude
Rises 03:02:04 0° 252° (WSW) 4,095 - -44.4°
Reaches altitude 10° 03:05:17 10° 245° (WSW) 3,078 - -43.8°
Maximum altitude 03:12:09 37° 182° (S) 1,610 - -42.7°
Exits shadow 03:17:30 13° 120° (ESE) 2,478 9.4 -41.7°
Drops below altitude 10° 03:18:08 10° 117° (ESE) 2,664 9.6 -41.6°
Sets 03:20:44 0° 109° (ESE) 3,488 10.4 -41.2°
